Find Local Weather

World > North America > United States > Colorado

Wiley, Colorado Regional Weather

Lat: 38.16N, Lon: 102.72W
Wx Zone: COZ098
Warning FLW WEATHER ALERT - (More Info. Click Here) Warning
Feedback

Wiley, CO Regional Weather

Expires:201902231300;;383279
ASUS45 KBOU 231210
RWRCO 

WEATHER ROUNDUP FOR COLORADO
NATIONAL WEATHER SERVICE DENVER/BOULDER CO
500 AM MST SAT FEB 23 2019

NOTE: "FAIR" INDICATES FEW OR NO CLOUDS BELOW 12000 FEET WITH NO
SIGNIFICANT WEATHER AND/OR OBSTRUCTIONS TO VISIBILITY.


COZ086-089-092>099-231300-
...SOUTHEAST COLORADO...
  
CITY           SKY/WX    TMP DP  RH WIND       PRES   REMARKS
PUEBLO         LGT SNOW  28  24  85 N30G40    29.70R FOG     WCI  12  
LA JUNTA       LGT SNOW  28  25  88 N28G36    29.66R VSB 3/4 WCI  13  
LAMAR          LGT SNOW  32  30  92 NE16      29.62R VSB 3/4 WCI  21  
SPRINGFIELD      N/A     30  30 100 NE10      29.51F WCI  21          
$$
  

SKY/WX - Weather  TMP - Temperature  DP - Dew Point  RH - Relative Humidity
WIND - Wind Direction/Speed PRES - Barometric Pressure VSB - Visibility
WCI - Wind Chill Index E13G22 Wind - East Wind 13 mph/Gusts of 22 mph